[[{"header":{"parameterUnit":"m.s-1","parameterCategory":1,"la1":30.2991,"la2":30.254,"lo1":-89.0895,"lo2":-89.0444,"dy":0.0017,"dx":0.0017,"nx":28,"ny":28,"refTime":"2025-03-08T03:00:00:Z","depth":0,"parameterNumber":2,"parameterNumberName":"U-component_of_WINDS"},"data":[0,0,0,0,0,0,0,0,0,0,0,0,0,0,0,0,0,0,0,0,0,0,0,0,0,0,0,0,0,0,0,0,0,0,0,0,0,0,0,0,0,0,0,0,0,0,0,0,0,0,0,0,0,0,0,0,0,0,0.4284,0.4284,0,0.4289,0.4289,0.4289,0.4219,0.4217,0.4215,0.4213,0.422,0.4222,0.4224,0,0,0,0,0,0,0,0,0,0,0,0,0,0.4219,0.4221,0.4284,0.4284,0.4284,0.4289,0.4289,0.4289,0.4219,0.4217,0.4214,0.4212,0.4219,0.4222,0.4224,0,0,0,0,0,0,0,0,0,0,0,0,0,0.4238,0.4221,0.4284,0.425,0.4247,0.4289,0.4289,0.4289,0.4219,0.4217,0.4214,0.4211,0.4219,0.4221,0.4224,0.43,0,0,0.4233,0.4235,0,0,0,0,0,0,0,0,0.4237,0.4241,0.4255,0.4252,0.4249,0.425,0.4268,0.4293,0.422,0.423,0.4213,0.421,0.4233,0.4234,0.4241,0.43,0.43,0.4234,0.4235,0.4237,0.4238,0,0,0,0,0,0,0,0.4236,0.424,0.4286,0.4255,0.4252,0.4236,0.4235,0.4273,0.4247,0.4229,0.4224,0.4225,0.423,0.4239,0.4241,0.43,0.4234,0.4236,0.4238,0.4239,0.4425,0.4428,0,0,0,0,0,0,0.4239,0.4239,0.4286,0.4286,0.4236,0.4239,0.4239,0.4253,0.4247,0.4243,0.4228,0.4222,0.4235,0.4238,0.4241,0.4332,0.4237,0.4239,0.4241,0.4422,0.4425,0.4429,0,0,0,0,0,0,0.4238,0.4244,0.4286,0.4261,0.4265,0.4243,0.426,0.4254,0.4262,0.4246,0.4241,0.4241,0.4233,0.4237,0.4286,0.4331,0.4241,0.4243,0.4418,0.4423,0.4427,0.4512,0,0,0,0,0,0,0.4236,0.4244,0.4271,0.4262,0.4267,0.433,0.4262,0.4256,0.4267,0.426,0.4257,0.4253,0.4231,0.4282,0.4289,0.4333,0.4246,0.4414,0.442,0.4426,0.4505,0.4519,0.4531,0,0,0,0,0,0.4234,0.4294,0.4273,0.4279,0.4301,0.4333,0.4335,0.4308,0.4271,0.43,0.4289,0.4253,0.4324,0.4288,0.4295,0.4341,0.4411,0.4418,0.4425,0.4499,0.4516,0.453,0,0,0,0,0,0,0.4309,0.4293,0.4268,0.4327,0.4332,0.4321,0.4356,0.4326,0.4342,0.4334,0.43,0.43,0.4356,0.4352,0.4312,0.4415,0.4361,0.437,0.4415,0.4431,0.4444,0.4445,0.4248,0,0,0,0,0,0.4332,0.4359,0.4343,0.4397,0.44,0.4378,0.4391,0.4369,0.4373,0.4374,0.4367,0.4373,0.4397,0.4413,0.4434,0.4503,0.4504,0.4538,0.4551,0.4562,0.4571,0.4611,0.4627,0.4452,0.4452,0.4452,0,0,0.4381,0.4375,0.4394,0.4412,0.4413,0.4443,0.438,0.4413,0.4436,0.438,0.4427,0.4422,0.4426,0.4487,0.4513,0.4486,0.4619,0.4571,0.458,0.4583,0.462,0.4637,0.4652,0.4457,0.4456,0.4455,0,0,0.4485,0.4482,0.4529,0.4531,0.4534,0.4518,0.453,0.4523,0.4518,0.4564,0.4524,0.455,0.4591,0.4597,0.4605,0.4714,0.4683,0.4722,0.479,0.4829,0.4843,0.4855,0.4898,0.4913,0.473,0.473,0.473,0,0.4546,0.4588,0.4556,0.4593,0.4604,0.4554,0.4602,0.4606,0.4615,0.4625,0.4593,0.4646,0.4645,0.4708,0.4735,0.4742,0.4756,0.4723,0.4844,0.4855,0.4866,0.4906,0.4922,0.4735,0.4735,0.4734,0.4734,0,0.4664,0.4695,0.4732,0.4743,0.4757,0.4799,0.4775,0.4794,0.4771,0.476,0.481,0.4807,0.4828,0.484,0.4818,0.4901,0.4885,0.4849,0.4795,0.4889,0.4926,0.4941,0.4742,0.4741,0.4739,0.4738,0,0,0.4817,0.481,0.4825,0.4831,0.483,0.4854,0.4895,0.4915,0.4933,0.4941,0.4977,0.5013,0.4981,0.4991,0.4969,0.5003,0.5094,0.4963,0.4963,0.4991,0.5189,0.5218,0.5236,0.5072,0.5075,0.5077,0.519,0,0.4921,0.499,0.4964,0.5036,0.5065,0.5019,0.5055,0.506,0.5051,0.5076,0.5065,0.5094,0.5047,0.5053,0.5085,0.5076,0.5134,0.5067,0.5108,0.511,0.5111,0.5255,0.5285,0.5392,0.5204,0.5206,0.5208,0,0.5051,0.5066,0.5142,0.5139,0.5151,0.5184,0.5202,0.5225,0.523,0.5221,0.5233,0.5205,0.5247,0.5191,0.525,0.5206,0.522,0.5219,0.5223,0.5228,0.5166,0.5267,0.5425,0.5442,0.523,0.5228,0.5227,0,0.5159,0.5198,0.5249,0.5254,0.5252,0.5277,0.5277,0.5279,0.5294,0.531,0.532,0.534,0.5352,0.5369,0.5348,0.5309,0.5412,0.5353,0.5408,0.5409,0.5434,0.5433,0.5599,0.5438,0.5438,0.5438,0.5437,0,0.528,0.5329,0.5297,0.5329,0.5383,0.5353,0.5408,0.5403,0.5406,0.5437,0.5398,0.5428,0.5397,0.5425,0.5408,0.5462,0.5467,0.5462,0.5458,0.5468,0.5469,0.5479,0.5472,0.5442,0.5441,0.544,0.5439,0,0.541,0.539,0.5444,0.5437,0.5437,0.5478,0.5473,0.5503,0.5491,0.5532,0.554,0.5522,0.5553,0.5533,0.5564,0.5553,0.5625,0.5608,0.5623,0.562,0.5677,0.5673,0.5858,0.5882,0.5703,0.5705,0.5706,0,0.549,0.5527,0.5525,0.5543,0.5546,0.5575,0.5591,0.5562,0.558,0.5591,0.562,0.5648,0.5669,0.5722,0.5713,0.5737,0.5723,0.5786,0.5727,0.5737,0.5728,0.5728,0.5733,0.5799,0.5801,0.5803,0.5804,0,0.5635,0.5624,0.5647,0.5668,0.5688,0.5703,0.5714,0.5732,0.5704,0.5726,0.5758,0.5774,0.5807,0.5837,0.5858,0.5859,0.5829,0.5823,0.5838,0.5849,0.5858,0.5858,0.5659,0.582,0.5818,0.5817,0.5816,0.5816,0.5744,0.5776,0.5781,0.5809,0.5815,0.5828,0.5857,0.5849,0.5875,0.59,0.5881,0.592,0.5927,0.5952,0.5958,0.5989,0.5963,0.5984,0.5989,0.5995,0.6005,0.5851,0.5992,0.5992,0.5991,0.5991,0.599,0,0.5889,0.5891,0.5917,0.5935,0.5959,0.5926,0.5939,0.5961,0.5995,0.6004,0.6026,0.6064,0.6093,0.6086,0.6113,0.6139,0.6126,0.6147,0.6147,0.6148,0.6024,0.6011,0.6158,0.6158,0.6158,0.6158,0.6158,0.6158,0.5968,0.6021,0.6012,0.6069,0.6069,0.6107,0.6117,0.613,0.6137,0.6181,0.6205,0.6201,0.6204,0.6231,0.6257,0.6254,0.6268,0.6295,0.6288,0.6173,0.6156,0.6141,0.6128,0.6297,0.6297,0.6409,0.641,0.6411]},{"header":{"parameterUnit":"m.s-1","parameterCategory":1,"la1":30.2991,"la2":30.254,"lo1":-89.0895,"lo2":-89.0444,"dy":0.0017,"dx":0.0017,"nx":28,"ny":28,"refTime":"2025-03-08T03:00:00:Z","depth":0,"parameterNumber":3,"parameterNumberName":"V-component_of_WINDS"},"data":[0,0,0,0,0,0,0,0,0,0,0,0,0,0,0,0,0,0,0,0,0,0,0,0,0,0,0,0,0,0,0,0,0,0,0,0,0,0,0,0,0,0,0,0,0,0,0,0,0,0,0,0,0,0,0,0,0,0,4.0871,4.0873,0,4.1116,4.1119,4.1122,4.1164,4.1162,4.116,4.1158,4.1408,4.1417,4.1425,0,0,0,0,0,0,0,0,0,0,0,0,0,4.0438,4.0445,4.0871,4.0874,4.0877,4.1116,4.1119,4.1123,4.1164,4.1162,4.1159,4.1157,4.1406,4.1416,4.1426,0,0,0,0,0,0,0,0,0,0,0,0,0,4.0649,4.0448,4.087,4.0926,4.0934,4.1115,4.1119,4.1124,4.1165,4.1161,4.1158,4.1155,4.1402,4.1415,4.1428,4.157,0,0,4.1467,4.1473,0,0,0,0,0,0,0,0,4.0637,4.0665,4.0915,4.0923,4.0931,4.1106,4.1059,4.1273,4.1165,4.1077,4.1157,4.1154,4.131,4.1331,4.1384,4.1582,4.1593,4.1468,4.1476,4.1482,4.1485,0,0,0,0,0,0,0,4.0622,4.0654,4.0968,4.0918,4.0929,4.0939,4.0966,4.11,4.1208,4.1084,4.1088,4.1117,4.1314,4.1371,4.139,4.1596,4.1468,4.1479,4.1487,4.1492,4.1927,4.1931,0,0,0,0,0,0,4.0597,4.0642,4.096,4.0975,4.0773,4.095,4.0979,4.1053,4.1207,4.1227,4.1119,4.1118,4.135,4.1375,4.1399,4.1579,4.1482,4.1494,4.1501,4.1923,4.1928,4.1932,0,0,0,0,0,0,4.0588,4.0625,4.095,4.081,4.0852,4.096,4.1043,4.106,4.1117,4.1233,4.1253,4.1157,4.1349,4.1381,4.1528,4.1588,4.15,4.1511,4.1919,4.1925,4.193,4.1938,0,0,0,0,0,0,4.0575,4.0622,4.0677,4.0811,4.0859,4.1075,4.1047,4.1067,4.1139,4.1139,4.1274,4.1293,4.1349,4.1509,4.1541,4.1604,4.1521,4.1914,4.1922,4.1928,4.1933,4.1943,4.1952,0,0,0,0,0,4.056,4.0669,4.0679,4.0718,4.093,4.1079,4.1106,4.1169,4.1143,4.1201,4.1275,4.1289,4.1575,4.1523,4.156,4.1628,4.1911,4.1919,4.1928,4.1929,4.1941,4.1952,0,0,0,0,0,0,4.0539,4.0687,4.0701,4.0856,4.0955,4.1085,4.1159,4.1179,4.1287,4.1283,4.1355,4.1385,4.1529,4.1593,4.1532,4.1776,4.1741,4.1757,4.173,4.1743,4.1752,4.1735,4.1532,0,0,0,0,0,4.0552,4.066,4.0784,4.0909,4.0957,4.105,4.1116,4.1156,4.126,4.1302,4.1388,4.1489,4.1602,4.1675,4.1785,4.1941,4.1973,4.2006,4.2016,4.2023,4.2038,4.2128,4.2145,4.196,4.196,4.196,0,0,4.0581,4.0675,4.0739,4.0907,4.0988,4.1099,4.1084,4.1202,4.1285,4.132,4.1466,4.1532,4.1649,4.1803,4.1874,4.186,4.2095,4.2034,4.2039,4.205,4.2138,4.2156,4.2171,4.1966,4.1965,4.1964,0,0,4.0691,4.0772,4.0887,4.0969,4.1092,4.1152,4.118,4.1308,4.1354,4.1501,4.153,4.163,4.1822,4.1906,4.1974,4.2117,4.2134,4.215,4.2202,4.2289,4.2303,4.2317,4.2371,4.2389,4.2163,4.2163,4.2163,0,4.0712,4.0881,4.0943,4.1061,4.1135,4.1172,4.129,4.1365,4.1517,4.1568,4.155,4.1794,4.1875,4.205,4.2085,4.2137,4.2173,4.2137,4.2296,4.231,4.2324,4.2376,4.2396,4.2165,4.2164,4.2164,4.2164,0,4.0902,4.1018,4.1096,4.1244,4.1326,4.1443,4.1524,4.16,4.1631,4.1694,4.1845,4.1943,4.2076,4.2119,4.2151,4.23,4.2288,4.2281,4.2249,4.2342,4.2393,4.2413,4.2167,4.2166,4.2166,4.2165,0,0,4.1008,4.1189,4.1217,4.1286,4.1424,4.1516,4.1634,4.1764,4.1829,4.1932,4.2036,4.2198,4.2194,4.2271,4.2312,4.2388,4.2499,4.2373,4.2377,4.2396,4.2672,4.2679,4.2701,4.251,4.2514,4.2517,4.2664,0,4.1138,4.1352,4.1412,4.1593,4.1703,4.1739,4.1843,4.1939,4.2001,4.2103,4.217,4.2286,4.227,4.2317,4.2394,4.2469,4.2556,4.2459,4.2608,4.2613,4.2582,4.2727,4.2734,4.2868,4.2683,4.2687,4.2689,0,4.1318,4.1427,4.1619,4.1746,4.1794,4.1886,4.2012,4.2108,4.2218,4.2258,4.2344,4.2379,4.2505,4.2462,4.2638,4.2571,4.2635,4.2681,4.2688,4.2708,4.2659,4.2754,4.2911,4.2933,4.2721,4.2718,4.2716,0,4.1381,4.1575,4.1716,4.1773,4.1923,4.1988,4.2053,4.216,4.2235,4.2344,4.2394,4.2515,4.2582,4.2676,4.2743,4.2705,4.2914,4.2876,4.2952,4.2951,4.2998,4.2995,4.3172,4.3032,4.3032,4.3032,4.3031,0,4.1523,4.164,4.1747,4.1834,4.1967,4.2034,4.2164,4.223,4.2326,4.2427,4.2464,4.2558,4.2639,4.2744,4.2797,4.2936,4.2965,4.3002,4.3015,4.3001,4.2997,4.3047,4.3041,4.3037,4.3036,4.3035,4.3034,0,4.1617,4.1693,4.185,4.1979,4.2014,4.2107,4.2218,4.2304,4.2366,4.2494,4.2528,4.2626,4.2752,4.2827,4.2985,4.3021,4.3177,4.3184,4.314,4.3147,4.322,4.3214,4.3439,4.3473,4.3307,4.3308,4.3309,0,4.1704,4.1795,4.1935,4.2006,4.2072,4.2185,4.2262,4.2332,4.2411,4.2544,4.2615,4.2743,4.285,4.3049,4.3135,4.3257,4.327,4.334,4.3289,4.3273,4.3276,4.3272,4.3282,4.335,4.3352,4.3353,4.3354,0,4.1852,4.1885,4.1995,4.2119,4.221,4.2311,4.2411,4.2467,4.2553,4.264,4.277,4.2852,4.3015,4.3143,4.3273,4.334,4.3363,4.3369,4.3394,4.3382,4.3355,4.3375,4.3168,4.3365,4.3363,4.3363,4.3362,4.3362,4.1948,4.2032,4.2144,4.2266,4.2349,4.2442,4.253,4.2604,4.2713,4.2852,4.2886,4.3023,4.3132,4.3308,4.3379,4.3487,4.3476,4.3511,4.3521,4.3529,4.3533,4.3334,4.351,4.351,4.351,4.351,4.351,0,4.2102,4.2175,4.2287,4.2426,4.2522,4.2534,4.2645,4.2726,4.2846,4.2946,4.305,4.32,4.3325,4.342,4.3547,4.3616,4.363,4.3648,4.3645,4.3661,4.3534,4.3502,4.3635,4.3635,4.3635,4.3635,4.3635,4.3635,4.2193,4.2337,4.2384,4.2569,4.2642,4.2777,4.2841,4.2927,4.3007,4.3174,4.3278,4.3338,4.3437,4.3572,4.3687,4.3712,4.3759,4.3776,4.3803,4.3683,4.367,4.3657,4.3627,4.3785,4.3785,4.3922,4.3923,4.3924]}]]